Location: Bednik
(45.3500°N, 16.3833°E)
Time: 06:20:43
(UTC+00:00)

BREEZE-M DEB (TANK) - Pass Details

Date: 08 August 2020
Orbit: 280 x 20488 km, 49.2° (Epoch: 23 September)

Event Time Altitude Azimuth Distance (km) Brightness Sun altitude
Rises 19:52:07 0° 277° (W) 3,186 7.6 -15.5°
Reaches altitude 10° 19:55:17 10° 288° (WNW) 1,525 6.1 -15.9°
Maximum altitude 19:57:46 32° 356° (N) 551 3.3 -16.2°
Enters shadow 19:58:41 21° 46° (NE) 718 3.4 -16.3°
